You are not logged in, Click here to log in
南京祿口國際機場NKG / ZSNJ 江蘇省南京市江寧區祿口街道
ICAO: ZSNJ Country: 江蘇省南京市江寧區祿口街道
Latitude: 31.7338 Longitude: 118.872
Total Arrivals: 6 Total Departures: 5
Latest Arrival: H9Z678 (ZYTL-ZSNJ)CHU. CHUHAO Latest Departure: B7125 (ZSNJ-RCTP)CHU. CHUHAO
Scenery:
METAR : ZSNJ 121900Z 29003MPS 260V320 9999 OVC026 24/22 Q1004 NOSIG

南京祿口國際機場NKG

You are accessing this site from IP address 35.168.112.145. Virtual Airline. CMS by phpVMS.Website designed by Zumeweb and edited by Theo Bearman.
There is 0 User(s) Online: | and 13 Guest(s) Online.
All information on this site is for fight simulation purposes only. This site is for flight logging for pilots of Virtual Airline&模擬飛行論壇 FlySim only.